Regional Weather Roundup
Issued by NWS Northern Indiana

Home | Current Version | Previous Version | Text Only | Print | Product List | Glossary On
Versions: 1 2 3 4 5 6 7 8 9 10 11 12 13 14 15 16 17 18 19 20 21 22 23 24 25 26 27 28 29 30 31 32 33 34 35 36 37 38 39 40 41 42 43 44 45 46 47 48 49 50
000
ASUS43 KIWX 221910
RWRIWX

KIWX WEATHER ROUNDUP
NATIONAL WEATHER SERVICE NORTHERN INDIANA
300 PM EDT FRI SEP 22 2017

NOTE: "FAIR" INDICATES FEW OR NO CLOUDS BELOW 12,000 FEET WITH NO
SIGNIFICANT WEATHER AND/OR OBSTRUCTIONS TO VISIBILITY.

* THESE STATIONS ARE NOT UNDER NWS QUALITY CONTROL. THEY ALSO MAY NOT
  REPORT WEATHER SUCH AS PRECIPITATION OR FOG.

INZ001>027-222000-
NORTHERN INDIANA

CITY           SKY/WX    TMP DP  RH WIND       PRES   REMARKS
GARY*          MOSUNNY   93  61  33 SE9       30.06F
VALPARAISO     SUNNY     93  68  43 W5        30.07F HX  97
MICHIGAN CITY* SUNNY     90  66  45 SW9       30.07F
LAPORTE*       MOSUNNY   89  67  48 CALM      30.08F
KNOX*          SUNNY     90  66  45 SE5       30.07S
SOUTH BEND     SUNNY     89  67  47 NW5       30.08F
ELKHART*       MOSUNNY   90  66  45 CALM      30.08F
GOSHEN         MOSUNNY   91  65  41 E3        30.08F
MONTICELLO*    SUNNY     92  67  43 CALM      30.06F HX  95
LOGANSPORT*    SUNNY     88  66  48 CALM      30.08F
WARSAW*        PTSUNNY   88  68  51 E5        30.09S
AUBURN*        MOSUNNY   88  66  48 CALM      30.10F
FORT WAYNE     MOSUNNY   91  69  48 N3        30.09F HX  96
HUNTINGTON*    SUNNY     90  66  46 E3        30.08F
PERU/GRISSOM   SUNNY     90  68  48 NE3       30.08F

$$
INZ028>050-222000-
CENTRAL INDIANA

CITY           SKY/WX    TMP DP  RH WIND       PRES   REMARKS
LAFAYETTE      SUNNY     90  69  50 CALM      30.06F
KOKOMO*        PTSUNNY   90  68  48 SE3       30.09F
MUNCIE*        MOSUNNY   93  66  40 VRB7      30.08F HX  96
INDIANAPOLIS   MOSUNNY   90  66  45 E6        30.07F

$$
MIZ043>046-050>051-056>058-064>065-071>073-077>080-222000-
SOUTHWEST LOWER MICHIGAN

CITY           SKY/WX    TMP DP  RH WIND       PRES   REMARKS
BATTLE CREEK   SUNNY     91  66  43 S5        30.10F
BENTON HARBOR  SUNNY     90  64  42 VRB6      30.07F
COLDWATER*     MOSUNNY   90  61  38 CALM      30.09F
HILLSDALE*     PTSUNNY   88  66  48 W5        30.10F
HOLLAND        SUNNY     92  65  40 W8        30.08F
GRAND RAPIDS   MOSUNNY   94  64  37 SW8       30.07F HX  95
KALAMAZOO      SUNNY     92  62  36 VRB5      30.08F
STURGIS*       SUNNY     91  66  44 CALM      30.08F
THREE RIVERS*  PTSUNNY   92  65  41 CALM      30.09S

$$
OHZ001>008-015>018-024>025-222000-
NORTHWEST OHIO

CITY           SKY/WX    TMP DP  RH WIND       PRES   REMARKS
WAUSEON*       FAIR      91  68  46 CALM      30.08F HX  95
DEFIANCE       MOSUNNY   90  67  46 NW6       30.08F
FINDLAY        MOSUNNY   90  67  46 E6        30.08F
TOLEDO EXPRESS SUNNY     92  72  51 NE7       30.08F HX  99
TOLEDO METCALF SUNNY     88  69  53 E7        30.09F
LIMA           MOSUNNY   89  68  49 VRB3      30.09F

$$
AND FOR LAKE MICHIGAN COASTAL AND OPEN LAKE BUOY OBSERVATIONS

STATION/POSITION TEMP    WIND        PRES    VSBY  WAVE
                 AIR SEA DIR/SP/G                  HT/PER
                 (F)     (DEG/KT/KT) (MB)    (MI)  (FT/S)
CALUMET HARBOR    90     150/  5/ 10 1016.8F
MICHIGAN CITY     82      10/  4/  5   N/A
BURNS HARBOR      85      40/  6/  8 1017.9F
SAINT JOSEPH      82     210/  3/  4 1019.0
SOUTH LAKE BUOY   72 70  150/  8/  8 1017.9F         1
4 MI NW BRIDGMAN  81 72   80/  2/  2 1017.7          0
MICHIGAN CITY     80 75   50/  2/  4   N/A           0

$$
&&



USA.gov is the U.S. government's official web portal to all federal, state and local government web resources and services.